[[{"header":{"parameterUnit":"m.s-1","parameterCategory":1,"la1":30.2992,"la2":30.254,"lo1":-89.0895,"lo2":-89.0443,"dy":0.0025,"dx":0.0025,"nx":19,"ny":19,"refTime":"2026-05-02T09:00:00:Z","depth":0,"parameterNumber":2,"parameterNumberName":"U-component_of_WINDS"},"data":[0,0,0,1.3781,1.3783,1.3912,1.3912,1.4062,1.4063,0,0,0,0,0,0,0,0,0,0,0,1.3732,1.3733,1.3781,1.3783,1.3911,1.3912,1.4062,1.4063,0,0,0,0,0,0,0,0,0,0,0,1.3732,1.3733,1.3734,1.3784,1.3911,1.3912,1.4062,1.397,0,0,0,0,0,0,0,0,0,0,1.3849,1.3793,1.3733,1.3734,1.3785,1.3911,1.3912,1.3966,1.3976,1.3998,0,1.4012,0,1.404,1.4072,1.4073,0,0,0,1.3792,1.3785,1.3829,1.3734,1.3786,1.3911,1.3856,1.3972,1.3983,1.401,1.4014,1.402,1.4042,1.4073,1.4074,1.4165,1.4165,0,0,1.3785,1.375,1.3821,1.3835,1.3812,1.3852,1.386,1.3979,1.3982,1.4015,1.4024,1.4045,1.4074,1.4075,1.4165,1.4165,0,0,0,1.3759,1.3745,1.3786,1.3829,1.3853,1.3855,1.3865,1.3976,1.3993,1.4026,1.4047,1.4075,1.4077,1.4165,1.4165,1.4132,0,0,0,1.3755,1.373,1.3783,1.3763,1.385,1.3916,1.3859,1.3984,1.3999,1.4046,1.4075,1.4078,1.4165,1.4165,1.4133,1.4123,0,0,0,1.3728,1.3727,1.3742,1.3761,1.3815,1.3915,1.3938,1.3988,1.4011,1.4073,1.4078,1.4165,1.4165,1.4134,1.4124,1.4137,0,0,0,1.3689,1.3712,1.3741,1.3774,1.3813,1.3893,1.3938,1.3999,1.4048,1.4076,1.4165,1.4165,1.4134,1.4125,1.4137,1.414,1.4138,0,0,1.3699,1.3712,1.3734,1.3764,1.3829,1.3876,1.3938,1.4016,1.4055,1.4127,1.4129,1.4133,1.4124,1.4137,1.4139,1.4137,0,0,0,1.3726,1.3741,1.3766,1.381,1.387,1.392,1.3993,1.4022,1.4084,1.4084,1.4142,1.4138,1.4147,1.415,1.4148,1.4158,1.4165,1.4165,1.4165,1.369,1.3737,1.3777,1.3839,1.3881,1.3956,1.3995,1.4047,1.4083,1.4096,1.4118,1.4113,1.4116,1.4115,1.4124,1.4123,1.4123,1.4123,1.4123,1.3708,1.3738,1.3784,1.3839,1.3889,1.3937,1.401,1.4033,1.4086,1.4101,1.4111,1.4123,1.4111,1.4122,1.4121,1.4121,1.4122,1.4122,1.4122,1.369,1.3712,1.3746,1.3815,1.3863,1.3926,1.3974,1.4018,1.406,1.407,1.4098,1.4099,1.4105,1.408,1.408,1.408,1.408,1.408,1.408,1.3657,1.3696,1.3731,1.3795,1.3829,1.388,1.3955,1.3991,1.4042,1.4071,1.4071,1.4105,1.4101,1.4099,1.408,1.408,1.408,1.408,1.408,1.3657,1.3664,1.3716,1.375,1.3831,1.3875,1.3931,1.4,1.4036,1.4059,1.4091,1.4081,1.4098,1.41,1.4098,1.4081,1.4081,1.4081,1.4081,1.3641,1.3654,1.3717,1.3769,1.3825,1.3881,1.394,1.3999,1.4062,1.4087,1.4097,1.4098,1.4098,1.4116,1.4117,1.4116,1.4104,1.4104,1.4104,1.3644,1.3664,1.3705,1.3764,1.383,1.3887,1.3944,1.4003,1.4076,1.4106,1.4108,1.4107,1.4111,1.411,1.4139,1.414,1.414,0,0]},{"header":{"parameterUnit":"m.s-1","parameterCategory":1,"la1":30.2992,"la2":30.254,"lo1":-89.0895,"lo2":-89.0443,"dy":0.0025,"dx":0.0025,"nx":19,"ny":19,"refTime":"2026-05-02T09:00:00:Z","depth":0,"parameterNumber":3,"parameterNumberName":"V-component_of_WINDS"},"data":[0,0,0,1.0245,1.0245,1.0225,1.0224,1.0216,1.0216,0,0,0,0,0,0,0,0,0,0,0,1.0265,1.0265,1.0245,1.0245,1.0225,1.0224,1.0216,1.0216,0,0,0,0,0,0,0,0,0,0,0,1.0264,1.0265,1.0265,1.0245,1.0225,1.0224,1.0216,1.0225,0,0,0,0,0,0,0,0,0,0,1.0241,1.0273,1.0265,1.0265,1.0245,1.0225,1.0224,1.0225,1.0224,1.0234,0,1.0248,0,1.0232,1.0217,1.0217,0,0,0,1.0235,1.0274,1.0256,1.0265,1.0245,1.0225,1.0231,1.0224,1.0223,1.0233,1.0248,1.0247,1.0232,1.0217,1.0217,1.031,1.0311,0,0,1.0236,1.0268,1.0257,1.0256,1.0263,1.0232,1.023,1.0223,1.0241,1.0248,1.0246,1.0232,1.0217,1.0217,1.0309,1.031,0,0,0,1.0246,1.0269,1.0251,1.0257,1.0252,1.0231,1.023,1.0241,1.0233,1.0246,1.0232,1.0217,1.0217,1.0308,1.0309,1.0384,0,0,0,1.0246,1.0275,1.0252,1.0272,1.0253,1.0247,1.0248,1.0233,1.0231,1.0232,1.0217,1.0218,1.0307,1.0309,1.038,1.0414,0,0,0,1.0261,1.0277,1.0278,1.0273,1.0266,1.0246,1.0237,1.0232,1.0223,1.0217,1.0218,1.0306,1.0308,1.0376,1.0407,1.0445,0,0,0,1.0286,1.0347,1.028,1.0342,1.0266,1.0294,1.0237,1.0256,1.026,1.0217,1.0307,1.0309,1.0375,1.0403,1.0441,1.048,1.0501,0,0,1.0381,1.036,1.0393,1.0333,1.038,1.0294,1.0352,1.0325,1.0295,1.0306,1.0308,1.0381,1.0407,1.0444,1.0607,1.0623,0,0,0,1.0434,1.0458,1.0463,1.0469,1.045,1.0434,1.0396,1.0385,1.0392,1.0308,1.0405,1.0419,1.044,1.0457,1.0471,1.0484,1.0319,1.0319,1.0319,1.0613,1.057,1.0621,1.0575,1.0581,1.0538,1.0537,1.0515,1.0473,1.0496,1.0498,1.0602,1.0624,1.0634,1.0649,1.0518,1.0518,1.0518,1.0518,1.0744,1.077,1.0709,1.0736,1.069,1.0712,1.0672,1.064,1.0651,1.0598,1.0614,1.0558,1.0653,1.0664,1.0523,1.0523,1.0522,1.0521,1.0521,1.0854,1.0859,1.0845,1.0845,1.0849,1.08,1.0813,1.0771,1.0731,1.0747,1.0742,1.0741,1.0731,1.0748,1.0749,1.0749,1.0749,1.075,1.075,1.0973,1.0955,1.0972,1.0954,1.0949,1.0938,1.0894,1.0887,1.0869,1.0837,1.0836,1.0788,1.0672,1.0642,1.0755,1.0754,1.0753,1.0753,1.0753,1.1118,1.1078,1.1104,1.1099,1.1072,1.1077,1.1023,1.1013,1.1001,1.1008,1.0956,1.0878,1.0853,1.0842,1.0816,1.0968,1.0968,1.0968,1.0968,1.1209,1.1192,1.1207,1.1201,1.1191,1.1144,1.117,1.1135,1.1092,1.1081,1.1053,1.1016,1.1007,1.0987,1.0973,1.0948,1.113,1.113,1.113,1.1293,1.1273,1.1305,1.1263,1.1238,1.1217,1.1239,1.1232,1.1175,1.1135,1.107,1.1063,1.1004,1.0988,1.0945,1.0924,1.0878,0,0]}]]